Track STARLINK-31395 now! 10-day predictions STARLINK-31395 is classified as:
1 59180U 24045C 24326.17421843 .00000248 00000-0 13207-4 0 9996 2 59180 43.0014 256.2118 0001053 6.7144 353.3727 15.40680687 40631